Change the Weather History Date:

Thursday, October 11, 2012

  Actual Average Record
Temperature  
Mean Temperature 60 °F 58 °F  
Max Temperature 78 °F 70 °F 94 °F (1975)
Min Temperature 41 °F 46 °F 31 °F (1987)
Degree Days  
Heating Degree Days 5 8  
Month to date heating degree days 130 73  
Since 1 July heating degree days 183 140  
Cooling Degree Days 0 1  
Month to date cooling degree days 2 17  
Year to date cooling degree days 1936 1410  
Growing Degree Days 10 (Base 50)    
Moisture  
Dew Point 45 °F    
Average Humidity 57    
Maximum Humidity 73    
Minimum Humidity 40    
Precipitation  
Precipitation T in 0.09 in 1.88 in (1912)
Month to date precipitation 0.70 1.19  
Year to date precipitation 20.28 31.42  
Snow  
Snow 0.00 in 0.00 in T in (1927)
Month to date snowfall 0.0 0.0  
Year to date snowfall 3.0 11.3  
Since 1 July snowfall 0.0 0.0  
Snow Depth 0.00 in    
Sea Level Pressure  
Sea Level Pressure 30.09 in    
Wind  
Wind Speed 6 mph (ESE)    
Max Wind Speed 21 mph    
Max Gust Speed 30 mph    
Visibility 10 miles    
Events      
T = Trace of Precipitation, MM = Missing Value Source: NWS Daily Summary

Daily Weather History Graph

Daily Weather History Graph

Search for Another Location

Airport or City:

Trip Planner

Search our weather history database for the weather conditions in past years. The results will help you decide how hot, cold, wet, or windy it might be!

Date:

Astronomy

Oct. 11, 2012 Rise Set
Actual Time 7:28 AM CDT 6:48 PM CDT
Civil Twilight 7:01 AM CDT 7:15 PM CDT
Nautical Twilight 6:30 AM CDT 7:46 PM CDT
Astronomical Twilight 5:59 AM CDT 8:17 PM CDT
Moon 3:09 AM CDT (10/11) 4:24 PM CDT (10/11)
Length of Visible Light 12h 13m
Length of Day
11h 20m
Waning Crescent, 18% of the Moon is Illuminated
Oct 11
Waning Crescent
Oct 15
New
Oct 21
First Quarter
Oct 29
Full
Nov 6
Last Quarter

Hourly Weather History & Observations

Time (CDT) Temp. Windchill Dew Point Humidity Pressure Visibility Wind Dir Wind Speed Gust Speed Precip Events Conditions
12:53 AM 48.0 °F - 32.0 °F 54% 30.14 in 10.0 mi Calm Calm - N/A   Clear
1:53 AM 46.9 °F - 32.0 °F 56% 30.13 in 10.0 mi Calm Calm - N/A   Clear
2:53 AM 43.0 °F - 32.0 °F 65% 30.12 in 10.0 mi Calm Calm - N/A   Clear
3:53 AM 43.0 °F - 30.9 °F 62% 30.12 in 10.0 mi Calm Calm - N/A   Clear
4:53 AM 45.0 °F - 34.0 °F 65% 30.10 in 10.0 mi Calm Calm - N/A   Mostly Cloudy
5:53 AM 45.0 °F - 35.1 °F 68% 30.09 in 10.0 mi Calm Calm - N/A   Partly Cloudy
6:53 AM 46.9 °F - 36.0 °F 66% 30.09 in 10.0 mi East 3.5 mph - N/A   Scattered Clouds
7:53 AM 46.0 °F 44.8 °F 36.0 °F 68% 30.09 in 10.0 mi ENE 3.5 mph - N/A   Mostly Cloudy
8:53 AM 52.0 °F - 37.9 °F 59% 30.09 in 10.0 mi Calm Calm - N/A   Clear
9:53 AM 59.0 °F - 42.1 °F 53% 30.09 in 10.0 mi Variable 3.5 mph - N/A   Clear
10:53 AM 66.0 °F - 46.9 °F 50% 30.09 in 10.0 mi SW 9.2 mph - N/A   Mostly Cloudy
11:53 AM 70.0 °F - 51.1 °F 51% 30.07 in 10.0 mi South 11.5 mph - N/A   Overcast
12:53 PM 73.0 °F - 53.1 °F 49% 30.05 in 10.0 mi SSE 10.4 mph - N/A   Partly Cloudy
1:53 PM 73.9 °F - 53.1 °F 48% 30.01 in 10.0 mi SSE 6.9 mph - N/A   Clear
2:53 PM 75.2 °F - 53.6 °F 47% 30.00 in 10.0 mi Variable 3.5 mph - N/A   Partly Cloudy
3:53 PM 75.9 °F - 54.0 °F 46% 30.00 in 10.0 mi SSE 9.2 mph - N/A   Overcast
4:53 PM 73.9 °F - 55.0 °F 52% 30.01 in 10.0 mi South 6.9 mph - N/A   Overcast
5:53 PM 71.6 °F - 55.4 °F 57% 30.03 in 10.0 mi ESE 4.6 mph - N/A   Overcast
6:53 PM 70.0 °F - 57.0 °F 63% 30.05 in 10.0 mi ESE 5.8 mph - 0.00 in   Overcast
7:53 PM 69.8 °F - 57.2 °F 64% 30.08 in 9.0 mi East 5.8 mph - N/A   Overcast
8:53 PM 66.0 °F - 55.9 °F 70% 30.11 in 10.0 mi East 4.6 mph - N/A   Partly Cloudy
9:53 PM 64.9 °F - 55.9 °F 73% 30.14 in 10.0 mi NNE 5.8 mph - N/A   Overcast
10:53 PM 64.0 °F - 39.9 °F 41% 30.17 in 10.0 mi North 17.3 mph 29.9 mph N/A   Overcast
11:53 PM 57.9 °F - 36.0 °F 44% 30.19 in 10.0 mi NNE 15.0 mph 19.6 mph N/A   Mostly Cloudy